Temp
-13 -14 -14 -14 -14 -14 -14 -14 -14 -14 -13 -14 -14 -14 -14 -14 -14 -14 -14 -15 -16 -16 -16 -16 -15 -16 -16 -16 -16 -17 -17 -17 -17 -17 -17 -16 -16 -16 -16 -17 -17 -17 -17
-14 -14 -14 -14 -14 -14 -14 -14 -14 -14 -14 -14 -14 -14 -14 -14 -14 -14 -14 -15 -15 -16 -16 -16 -16 -16 -16 -17 -17 -17 -17 -17 -18 -17 -17 -17 -17 -17 -16 -17 -17 -17 -17
-14 -14 -14 -14 -15 -15 -15 -15 -14 -14 -14 -14 -14 -14 -14 -15 -14 -14 -14 -14 -15 -15 -16 -16 -16 -16 -16 -16 -16 -16 -17 -18 -18 -18 -17 -17 -17 -17 -17 -17 -17 -18 -18
-14 -14 -14 -15 -15 -15 -15 -16 -15 -15 -15 -15 -14 -14 -14 -14 -15 -15 -14 -14 -15 -15 -16 -16 -16 -16 -16 -16 -16 -17 -17 -18 -18 -17 -17 -17 -17 -17 -17 -18 -18 -18 -17
-15 -14 -14 -15 -15 -15 -15 -16 -16 -15 -15 -15 -15 -15 -15 -15 -15 -15 -15 -15 -14 -15 -15 -16 -16 -16 -17 -17 -17 -17 -18 -18 -18 -18 -17 -18 -18 -18 -18 -18 -18 -17 -17
-15 -15 -15 -15 -15 -15 -16 -16 -16 -16 -16 -16 -16 -15 -15 -15 -15 -15 -15 -15 -15 -15 -15 -15 -17 -17 -17 -17 -17 -18 -18 -18 -18 -17 -17 -17 -18 -18 -18 -18 -17 -17 -17
-15 -15 -15 -15 -15 -15 -16 -16 -16 -16 -16 -16 -16 -16 -16 -16 -15 -15 -16 -15 -15 -15 -15 -15 -16 -17 -17 -17 -17 -18 -18 -18 -18 -17 -17 -17 -18 -17 -17 -18 -18 -18 -18
-15 -15 -15 -15 -15 -15 -16 -17 -17 -17 -17 -17 -16 -17 -17 -16 -16 -16 -16 -16 -16 -15 -15 -15 -15 -16 -17 -17 -17 -17 -17 -18 -18 -18 -18 -18 -18 -18 -18 -18 -18 -18 -18
-15 -15 -15 -15 -15 -16 -16 -17 -17 -17 -17 -16 -17 -17 -17 -17 -17 -17 -17 -16 -16 -16 -16 -15 -15 -16 -16 -17 -17 -17 -17 -17 -17 -17 -18 -17 -18 -18 -18 -18 -18 -18 -17
-15 -15 -16 -16 -17 -17 -17 -17 -18 -18 -17 -17 -17 -17 -17 -17 -17 -17 -18 -17 -17 -16 -16 -16 -16 -16 -16 -17 -17 -17 -17 -17 -17 -18 -18 -18 -18 -18 -17 -17 -17 -17 -17
-15 -15 -15 -16 -17 -18 -19 -18 -18 -18 -18 -18 -18 -17 -17 -17 -17 -17 -17 -18 -17 -17 -17 -17 -17 -17 -17 -17 -17 -17 -17 -17 -17 -17 -18 -18 -18 -17 -17 -17 -17 -17 -17
-15 -16 -17 -18 -18 -19 -19 -20 -20 -19 -19 -19 -18 -18 -18 -18 -18 -17 -17 -17 -18 -17 -17 -17 -17 -17 -17 -17 -17 -17 -17 -17 -17 -17 -17 -17 -17 -17 -17 -17 -17 -17 -17
-17 -18 -18 -19 -20 -20 -20 -20 -20 -20 -20 -19 -19 -18 -18 -17 -18 -18 -17 -17 -18 -17 -17 -17 -17 -17 -17 -17 -17 -17 -18 -18 -18 -18 -18 -17 -17 -17 -17 -17 -17 -17 -17
-18 -18 -19 -20 -20 -21 -21 -21 -21 -21 -20 -20 -19 -19 -18 -18 -18 -18 -18 -18 -18 -18 -17 -17 -17 -17 -18 -18 -18 -18 -18 -18 -18 -18 -18 -18 -18 -18 -17 -17 -17 -17 -17
-19 -19 -20 -20 -21 -21 -22 -22 -21 -21 -21 -21 -20 -19 -19 -19 -18 -18 -18 -18 -18 -19 -18 -18 -17 -18 -18 -18 -18 -18 -18 -18 -18 -18 -18 -18 -18 -18 -18 -18 -18 -18 -17
-19 -19 -20 -20 -20 -20 -20 -21 -22 -21 -21 -21 -21 -20 -20 -20 -20 -19 -19 -19 -18 -18 -18 -18 -18 -18 -18 -18 -18 -18 -18 -18 -18 -18 -18 -18 -18 -18 -18 -18 -18 -18 -18
-19 -19 -19 -19 -19 -19 -19 -20 -20 -21 -21 -21 -21 -20 -20 -20 -20 -20 -19 -19 -19 -18 -18 -18 -19 -18 -18 -18 -18 -18 -18 -18 -18 -18 -18 -18 -18 -19 -18 -18 -18 -18 -19
-19 -19 -19 -19 -19 -19 -19 -19 -19 -20 -20 -20 -20 -21 -20 -20 -20 -20 -20 -19 -19 -19 -18 -18 -19 -19 -19 -18 -18 -18 -18 -18 -18 -18 -18 -18 -19 -19 -19 -19 -19 -19 -19
-19 -19 -19 -19 -19 -20 -19 -19 -19 -19 -19 -19 -19 -20 -20 -20 -20 -20 -20 -20 -19 -19 -19 -19 -19 -19 -19 -19 -18 -19 -18 -18 -18 -18 -19 -19 -19 -19 -19 -19 -19 -19 -19
-19 -19 -19 -20 -20 -20 -20 -20 -20 -20 -20 -20 -19 -19 -20 -20 -20 -19 -20 -20 -20 -20 -19 -19 -19 -19 -19 -19 -19 -19 -19 -19 -19 -19 -19 -19 -19 -19 -19 -19 -19 -19 -19
-20 -20 -20 -20 -20 -20 -20 -20 -20 -20 -20 -20 -20 -20 -20 -20 -20 -20 -19 -19 -19 -20 -20 -19 -19 -19 -19 -19 -19 -19 -19 -19 -19 -19 -18 -19 -19 -19 -19 -19 -19 -19 -19
-20 -20 -20 -20 -20 -20 -20 -20 -20 -20 -20 -20 -20 -20 -20 -20 -20 -20 -20 -20 -20 -20 -20 -20 -19 -19 -19 -19 -19 -19 -20 -19 -19 -19 -19 -19 -19 -18 -19 -19 -19 -19 -19
-21 -21 -21 -20 -20 -20 -20 -21 -21 -21 -21 -21 -21 -21 -21 -21 -21 -21 -21 -20 -20 -20 -20 -20 -20 -20 -19 -19 -19 -19 -19 -19 -19 -19 -19 -19 -19 -19 -19 -19 -19 -19 -19
-21 -21 -21 -21 -21 -21 -21 -21 -21 -21 -21 -21 -21 -21 -21 -21 -21 -21 -21 -21 -20 -20 -20 -20 -19 -19 -20 -19 -19 -19 -19 -19 -19 -19 -19 -18 -19 -19 -19 -19 -19 -19 -19
-22 -22 -21 -21 -21 -21 -21 -21 -22 -22 -22 -21 -21 -21 -21 -21 -21 -21 -21 -21 -21 -21 -21 -20 -20 -19 -19 -19 -19 -19 -19 -19 -19 -19 -19 -20 -19 -19 -20 -19 -19 -19 -19
-23 -22 -22 -22 -22 -22 -22 -22 -22 -22 -22 -22 -22 -22 -22 -21 -21 -21 -21 -21 -21 -21 -21 -21 -20 -20 -19 -19 -19 -19 -19 -19 -19 -19 -20 -19 -19 -19 -20 -20 -20 -20 -19
Height
5732 5731 5730 5729 5728 5727 5727 5725 5723 5721 5719 5717 5715 5712 5709 5707 5703 5700 5698 5697 5697 5695 5693 5693 5693 5695 5697 5699 5701 5703 5706 5708 5710 5713 5715 5716 5718 5720 5722 5725 5727 5728 5729
5725 5725 5724 5724 5723 5722 5722 5721 5719 5718 5716 5715 5712 5710 5707 5705 5704 5700 5698 5697 5697 5695 5695 5693 5694 5695 5697 5699 5701 5703 5704 5706 5708 5710 5712 5714 5716 5718 5719 5721 5722 5724 5725
5718 5718 5718 5718 5717 5716 5717 5716 5715 5714 5712 5712 5710 5707 5705 5703 5701 5700 5698 5695 5695 5696 5694 5694 5693 5694 5696 5697 5698 5700 5701 5703 5706 5709 5710 5711 5712 5713 5714 5717 5718 5721 5723
5710 5711 5710 5711 5710 5710 5710 5710 5709 5709 5707 5706 5706 5704 5702 5700 5700 5698 5697 5694 5692 5693 5694 5693 5692 5693 5694 5695 5696 5698 5699 5699 5701 5703 5706 5708 5709 5710 5711 5713 5716 5718 5721
5702 5703 5703 5705 5703 5704 5703 5703 5703 5703 5703 5702 5700 5699 5698 5696 5695 5695 5694 5693 5690 5690 5690 5691 5690 5689 5691 5693 5694 5695 5696 5697 5699 5700 5702 5704 5705 5707 5708 5710 5712 5714 5717
5695 5696 5697 5697 5696 5697 5697 5696 5696 5697 5697 5697 5697 5695 5693 5692 5690 5690 5691 5691 5689 5686 5686 5687 5688 5687 5687 5690 5691 5692 5693 5694 5696 5697 5698 5700 5702 5704 5705 5706 5708 5710 5713
5687 5688 5688 5688 5688 5689 5689 5688 5688 5688 5690 5690 5690 5690 5689 5687 5686 5686 5685 5686 5686 5685 5683 5683 5685 5685 5684 5685 5687 5688 5689 5689 5691 5692 5695 5697 5699 5701 5702 5704 5705 5707 5710
5680 5680 5680 5680 5680 5680 5679 5679 5679 5680 5682 5683 5683 5683 5683 5682 5681 5681 5681 5681 5681 5681 5681 5680 5681 5682 5682 5681 5683 5684 5686 5687 5688 5690 5692 5694 5695 5697 5698 5700 5702 5705 5709
5670 5670 5670 5670 5670 5670 5669 5670 5671 5672 5674 5675 5675 5675 5676 5675 5675 5674 5676 5676 5677 5677 5677 5677 5678 5680 5681 5679 5679 5682 5684 5686 5686 5687 5689 5690 5692 5694 5697 5699 5702 5705 5708
5659 5658 5657 5657 5657 5657 5658 5658 5659 5662 5664 5665 5666 5667 5667 5668 5669 5669 5669 5671 5672 5673 5674 5675 5675 5677 5680 5681 5679 5680 5681 5683 5684 5685 5687 5688 5691 5694 5696 5698 5700 5703 5705
5648 5646 5645 5644 5643 5643 5644 5645 5648 5650 5652 5654 5657 5658 5659 5660 5661 5661 5663 5663 5666 5668 5670 5671 5673 5674 5675 5678 5679 5679 5680 5681 5683 5685 5687 5688 5690 5692 5693 5696 5698 5700 5703
5634 5633 5631 5631 5631 5632 5633 5634 5637 5639 5641 5643 5646 5648 5649 5652 5652 5654 5655 5656 5659 5662 5664 5667 5669 5671 5673 5675 5676 5678 5678 5679 5681 5683 5684 5686 5687 5689 5690 5692 5694 5697 5699
5621 5621 5621 5621 5621 5622 5623 5624 5626 5628 5630 5633 5636 5639 5638 5642 5643 5645 5647 5649 5651 5655 5657 5661 5664 5666 5668 5671 5673 5675 5676 5677 5679 5680 5681 5683 5684 5685 5687 5689 5691 5693 5695
5610 5611 5611 5612 5614 5614 5615 5616 5617 5619 5620 5621 5624 5628 5631 5632 5632 5636 5640 5642 5644 5646 5650 5653 5657 5660 5663 5666 5669 5671 5673 5675 5676 5677 5678 5679 5681 5682 5684 5685 5687 5689 5690
5601 5602 5603 5605 5605 5607 5607 5609 5609 5611 5613 5614 5615 5617 5619 5621 5624 5628 5631 5634 5636 5638 5642 5645 5649 5653 5657 5660 5663 5666 5668 5670 5671 5673 5674 5675 5676 5678 5679 5681 5682 5684 5684
5594 5595 5596 5597 5598 5599 5599 5600 5601 5603 5605 5607 5608 5609 5611 5613 5615 5618 5620 5624 5628 5630 5632 5636 5640 5645 5648 5652 5655 5659 5660 5662 5664 5667 5668 5669 5671 5672 5673 5674 5676 5677 5678
5587 5588 5589 5591 5592 5592 5592 5592 5592 5595 5597 5599 5601 5602 5603 5605 5607 5609 5611 5614 5617 5621 5624 5626 5630 5635 5639 5642 5646 5649 5653 5655 5657 5660 5661 5663 5664 5665 5666 5667 5667 5668 5669
5579 5581 5583 5585 5586 5585 5586 5586 5586 5587 5588 5589 5590 5592 5594 5597 5599 5601 5602 5604 5607 5610 5613 5617 5619 5623 5629 5632 5635 5640 5642 5645 5648 5650 5652 5654 5655 5657 5658 5659 5660 5660 5660
5571 5573 5576 5578 5579 5578 5580 5580 5580 5580 5581 5581 5581 5581 5584 5587 5590 5591 5593 5596 5597 5600 5602 5606 5609 5612 5615 5619 5624 5627 5631 5634 5637 5640 5642 5644 5645 5647 5648 5650 5651 5652 5652
5564 5566 5568 5570 5571 5571 5573 5573 5573 5573 5574 5575 5575 5576 5578 5579 5580 5581 5581 5583 5587 5589 5591 5594 5597 5601 5604 5607 5610 5614 5618 5621 5625 5628 5631 5633 5635 5637 5638 5640 5641 5643 5644
5555 5557 5558 5561 5562 5563 5564 5565 5565 5566 5566 5567 5567 5569 5570 5571 5571 5571 5571 5571 5573 5578 5581 5583 5586 5589 5592 5594 5597 5600 5605 5608 5612 5616 5618 5621 5624 5626 5627 5629 5630 5632 5633
5545 5547 5548 5550 5551 5552 5554 5555 5556 5557 5557 5557 5558 5559 5561 5561 5561 5561 5561 5560 5562 5566 5569 5572 5574 5576 5579 5583 5586 5589 5592 5595 5599 5602 5605 5608 5611 5613 5615 5617 5619 5621 5622
5533 5535 5537 5539 5540 5541 5542 5544 5545 5546 5547 5547 5548 5548 5549 5551 5551 5551 5552 5552 5553 5555 5558 5560 5563 5564 5566 5569 5572 5576 5579 5582 5585 5587 5590 5593 5597 5600 5602 5604 5606 5608 5610
5521 5523 5524 5526 5528 5529 5530 5531 5532 5534 5535 5536 5537 5538 5539 5540 5541 5541 5542 5542 5543 5544 5545 5547 5550 5553 5555 5556 5559 5561 5565 5567 5570 5572 5576 5579 5582 5585 5587 5590 5593 5595 5597
5507 5509 5510 5512 5513 5515 5516 5518 5519 5521 5522 5524 5525 5527 5528 5529 5530 5531 5531 5532 5533 5534 5535 5536 5537 5539 5541 5544 5545 5547 5550 5552 5554 5556 5559 5564 5568 5570 5574 5575 5578 5581 5582
5494 5495 5497 5498 5499 5501 5503 5505 5506 5508 5510 5512 5513 5515 5516 5517 5518 5519 5520 5521 5522 5523 5524 5525 5527 5527 5528 5530 5532 5534 5536 5538 5539 5541 5544 5548 5552 5556 5559 5562 5564 5567 5569
Wind_Speed
30 29 29 28 26 26 27 26 24 21 21 19 21 20 16 16 21 21 18 10 4 9 12 13 13 17 16 11 13 14 17 18 20 18 19 18 18 17 16 14 19 18 11
31 32 30 29 27 28 27 27 26 23 22 20 20 19 14 14 19 19 18 12 7 4 13 13 13 13 14 16 16 16 20 16 16 17 21 22 22 24 25 22 21 18 16
33 33 32 30 30 30 29 27 25 24 22 21 19 19 16 13 16 17 16 13 8 6 11 13 12 15 15 12 13 14 15 18 19 17 15 17 23 26 27 25 24 20 18
33 32 31 30 29 30 29 28 26 25 24 21 18 19 18 14 13 13 13 12 9 7 10 11 13 15 14 15 15 13 9 12 13 17 17 17 15 17 18 19 22 19 16
28 29 29 26 28 30 29 28 27 26 24 24 20 19 19 16 12 11 10 12 9 8 9 13 13 12 16 16 20 17 8 9 10 15 16 17 18 16 13 14 15 17 17
29 29 29 30 30 29 28 28 28 27 25 25 24 21 19 18 13 12 12 10 11 8 8 12 16 14 15 13 13 15 14 13 14 15 17 16 14 17 15 16 15 16 17
30 31 31 32 33 34 35 35 34 33 30 26 23 24 21 20 19 14 13 12 11 9 7 10 16 17 16 13 11 10 11 11 11 13 16 15 14 16 18 18 19 20 17
30 33 35 37 38 38 37 36 36 36 32 28 26 24 20 19 20 19 15 13 13 12 9 8 14 15 16 14 10 9 10 10 11 13 15 15 15 15 16 15 16 18 18
31 34 37 40 43 43 43 40 37 36 34 32 31 28 22 21 17 21 18 16 14 13 12 10 11 14 14 16 15 12 10 9 10 11 11 10 12 15 14 14 14 15 15
41 44 46 45 47 48 46 43 37 35 34 34 33 31 26 20 22 18 21 18 17 14 13 11 12 13 14 11 10 10 10 7 5 4 9 13 16 14 14 15 15 16 16
48 51 51 46 43 43 43 42 42 39 34 34 32 30 25 18 22 19 19 21 21 19 16 14 15 16 15 12 10 9 9 7 5 5 9 14 15 13 14 15 15 16 15
51 48 43 37 38 40 39 36 37 37 36 35 28 26 21 26 22 18 19 23 22 24 21 20 18 16 15 14 14 13 11 11 9 6 7 12 16 16 15 16 17 17 17
44 38 33 30 29 30 31 30 32 35 35 35 34 33 30 28 27 21 21 20 25 27 28 24 23 21 18 16 14 13 12 10 10 9 9 8 11 15 16 17 18 19 18
37 34 30 28 28 28 27 24 24 25 25 29 31 31 31 32 22 26 29 27 29 31 29 30 28 24 24 22 20 17 16 16 14 13 13 13 14 15 17 18 19 21 21
32 29 25 24 24 26 29 29 27 25 26 28 27 31 35 39 38 29 31 28 29 34 31 31 31 30 27 26 25 22 20 19 18 19 18 18 20 19 20 22 23 23 23
27 22 20 20 22 24 25 29 31 26 26 27 25 23 25 28 32 35 35 29 30 30 35 37 33 33 34 32 30 28 30 27 21 21 23 22 21 22 25 27 29 28 28
21 20 19 19 20 21 22 21 22 28 28 28 29 28 29 28 30 30 29 35 33 38 25 28 39 36 36 36 36 34 31 32 28 29 27 28 29 27 27 27 28 33 34
23 21 22 21 22 20 20 19 19 22 27 32 35 39 38 34 31 30 27 25 35 41 39 27 36 43 38 38 37 37 36 37 37 37 33 36 32 34 31 32 30 29 34
26 24 24 22 21 21 24 24 23 22 21 22 23 26 31 35 38 38 36 32 28 42 47 37 37 34 44 45 44 42 42 42 42 40 40 40 39 38 36 35 34 32 30
30 29 28 27 26 24 24 23 25 26 25 24 23 22 23 26 31 37 43 46 38 31 40 46 43 42 46 45 47 47 48 50 48 45 43 43 42 40 39 41 39 39 36
34 33 33 32 31 29 28 27 27 27 28 29 29 28 29 28 30 30 31 40 44 42 37 41 50 50 47 39 46 48 47 46 49 46 43 42 42 44 42 43 41 41 40
35 35 34 34 33 33 32 32 32 31 30 32 32 32 32 31 32 31 29 30 36 41 39 35 38 46 51 49 46 49 49 47 47 50 53 52 47 48 45 44 46 43 45
37 37 36 36 36 37 37 37 37 36 35 33 33 34 34 33 33 34 32 28 29 39 44 41 40 38 45 53 51 49 50 55 50 50 50 50 49 46 48 50 47 45 45
41 41 41 41 42 42 43 43 41 39 38 36 35 35 34 33 32 33 33 33 31 29 36 46 48 43 42 44 50 52 51 50 49 58 52 51 54 57 55 52 46 47 50
45 45 45 44 44 42 42 42 41 39 38 38 38 37 37 36 35 34 34 33 34 33 32 31 37 43 43 44 44 47 49 50 52 52 63 55 46 47 52 51 55 53 52
44 43 42 41 40 39 39 39 38 37 37 37 38 38 38 38 39 38 37 37 35 35 37 35 34 34 39 41 43 43 45 46 50 47 47 53 53 55 58 54 52 54 56
Wind_Direction
278 280 286 286 289 296 302 306 314 318 320 325 327 340 347 359 3 11 8 358 125 176 157 150 154 177 191 186 205 208 221 218 226 226 235 239 246 242 255 250 250 253 273
273 274 281 285 288 291 295 302 310 315 315 316 318 325 336 333 342 2 9 360 329 167 190 181 181 184 204 209 214 215 228 221 223 235 241 242 243 254 255 261 249 258 267
268 271 277 281 284 286 290 294 299 304 309 309 309 311 322 320 330 343 354 355 347 273 199 205 202 193 184 211 219 230 238 237 237 242 244 243 242 245 249 251 250 247 268
266 270 271 276 280 283 286 286 292 294 298 303 302 299 302 309 314 331 336 347 338 314 254 199 198 202 212 198 203 215 215 221 214 226 241 239 242 248 247 244 244 250 258
265 268 271 277 280 282 282 282 282 286 289 294 292 287 290 295 298 301 318 323 332 321 286 241 205 197 200 198 200 198 214 222 234 235 234 238 243 234 236 231 232 242 241
264 267 273 275 276 277 280 280 281 280 284 286 290 284 278 283 285 283 284 300 305 306 300 252 230 202 199 213 218 222 229 225 225 232 225 228 216 219 227 226 236 237 235
264 267 270 270 270 273 275 275 275 276 279 278 274 281 280 274 276 274 266 277 287 285 278 256 223 217 206 214 227 226 217 211 209 207 212 217 227 231 233 238 238 227 223
266 268 270 271 272 272 271 269 267 270 276 278 268 268 278 276 269 267 258 256 273 271 265 233 229 222 215 195 184 192 190 179 186 190 208 220 217 218 220 216 212 194 188
280 284 280 276 270 268 270 271 271 274 274 273 270 271 274 272 288 263 257 244 257 258 255 233 215 220 209 182 171 171 168 175 182 182 186 209 190 166 170 181 196 216 224
286 289 287 280 271 269 269 270 270 266 268 272 274 272 272 266 273 284 250 244 240 248 244 235 199 193 199 199 185 179 180 183 180 172 201 177 174 193 208 210 213 218 216
283 284 285 280 273 270 266 265 265 262 260 264 268 271 255 257 269 266 276 233 237 234 238 231 220 198 203 206 205 205 202 187 189 217 216 209 217 227 223 223 224 223 224
282 281 279 273 266 262 262 262 260 260 258 257 256 257 245 252 251 265 275 249 233 233 228 233 229 235 231 223 217 220 209 212 225 237 247 242 240 238 235 230 232 232 235
281 280 275 267 265 265 267 268 265 262 260 259 257 254 253 255 243 255 269 268 234 243 232 229 235 232 232 229 231 234 235 232 242 255 257 264 251 241 235 233 234 239 247
276 275 274 272 268 266 269 254 257 263 256 253 249 247 249 244 271 248 265 266 268 221 245 234 230 230 230 232 237 238 239 245 255 260 260 267 263 256 248 242 241 245 252
271 269 267 264 265 265 265 263 261 259 261 259 254 244 237 236 248 242 245 258 271 229 222 241 234 237 230 234 235 237 243 247 253 262 263 268 269 265 259 256 253 252 253
256 254 257 263 268 270 270 265 257 254 256 255 250 252 258 253 246 241 243 241 251 256 230 222 239 235 239 238 235 238 245 237 242 253 259 263 270 262 260 261 260 256 255
244 246 250 257 263 268 273 273 267 249 250 253 255 252 257 261 256 255 244 245 235 245 250 253 221 240 240 238 241 238 239 247 252 251 255 253 263 270 267 267 271 257 254
240 243 249 256 262 269 272 273 272 268 264 263 260 253 251 252 256 256 252 243 241 246 239 242 239 220 235 243 244 242 241 246 243 247 251 251 257 260 264 266 271 275 261
241 243 248 254 260 264 266 267 270 269 269 272 267 257 247 249 251 256 259 258 249 235 241 245 244 245 231 227 238 239 243 245 246 247 248 255 252 256 258 262 265 271 271
245 248 252 256 260 263 267 270 268 268 267 266 265 260 254 254 255 260 260 259 252 252 242 243 246 245 244 249 232 236 242 243 243 247 249 251 251 258 255 255 261 264 266
249 252 255 257 260 262 263 266 270 270 266 264 262 261 261 263 265 269 271 256 252 245 253 251 246 246 247 251 248 231 239 242 238 240 248 247 250 255 258 259 258 260 265
251 252 253 256 259 261 262 263 265 268 268 264 262 261 260 263 267 269 274 271 249 240 246 251 252 246 249 247 250 244 240 246 246 240 245 249 249 251 251 259 260 261 262
257 258 258 259 261 264 266 266 264 265 264 263 262 261 262 263 264 265 265 267 264 249 246 251 255 254 253 247 247 242 245 245 243 242 246 246 241 247 250 253 257 259 261
262 264 264 264 263 263 263 265 265 262 260 259 259 259 261 263 264 265 264 263 262 265 255 252 254 251 251 254 250 252 246 246 256 249 246 249 243 246 249 252 253 255 260
264 264 264 264 264 263 262 261 259 257 257 257 258 258 259 260 261 264 265 264 261 261 261 261 257 254 257 257 256 252 249 247 247 253 247 240 247 253 255 254 250 253 258
261 260 260 260 260 260 260 259 258 257 257 258 259 260 260 260 260 261 262 264 264 261 260 260 260 261 260 258 251 251 252 255 251 244 250 241 247 249 250 251 255 255 256